Location: Home
(42.5358°N, 72.7383°W)
Time: 14:46:30
(UTC-05:00)

deb Explorer IX - Pass Details

Date: 30 November 2021
Orbit: 544 x 1082 km, 38.8° (Epoch: 16 January)

Event Time Altitude Azimuth Distance (km) Brightness Sun altitude
Rises 15:16:12 0° 271° (W) 2,696 ? 8.7°
Reaches altitude 10° 15:18:32 10° 262° (W) 1,810 ? 8.3°
Maximum altitude 15:22:15 34° 196° (SSW) 933 ? 7.8°
Drops below altitude 10° 15:26:13 10° 131° (SE) 1,925 ? 7.2°
Sets 15:28:46 0° 122° (ESE) 2,897 ? 6.9°
